Glendive, MT

10:22 AM MDT on October 22, 2017 (GMT -0600)
Dawson Community

Weather History for KGDV - June, 2012

Change the Weather History Date:

Thursday, June 14, 2012

  Actual Average Record
Temperature  
Mean Temperature 62 °F -  
Max Temperature 75 °F 70 °F 91 °F (2006)
Min Temperature 50 °F 47 °F 44 °F (2002)
Degree Days  
Heating Degree Days 2    
Growing Degree Days 12 (Base 50)    
Moisture  
Dew Point 45 °F    
Average Humidity 52    
Maximum Humidity 72    
Minimum Humidity 34    
Precipitation  
Precipitation 0.00 in - - ()
Sea Level Pressure  
Sea Level Pressure 29.84 in    
Wind  
Wind Speed 15 mph (WNW)    
Max Wind Speed 28 mph    
Max Gust Speed 37 mph    
Visibility 10 miles    
Events      
Averages and records for this station are not official NWS values.
T = Trace of Precipitation, MM = Missing Value Source: NWS Daily Summary

Daily Weather History Graph

Daily Weather History Graph

Search for Another Location

Airport or City:

Trip Planner

Search our weather history database for the weather conditions in past years. The results will help you decide how hot, cold, wet, or windy it might be!

Date:

Astronomy

Jun. 14, 2012 Rise Set
Actual Time 5:02 AM MDT 8:56 PM MDT
Civil Twilight 4:23 AM MDT 9:36 PM MDT
Nautical Twilight 3:28 AM MDT 10:31 PM MDT
Astronomical Twilight 2:05 AM MDT 11:54 PM MDT
Moon 2:00 AM MDT (6/14) 4:31 PM MDT (6/14)
Length of Visible Light 17h 13m
Length of Day
15h 53m
Waning Crescent, 20% of the Moon is Illuminated
Jun 14
Waning Crescent
Jun 19
New
Jun 26
First Quarter
Jul 3
Full
Jul 10
Last Quarter

Hourly Weather History & Observations

Time (MDT) Temp. Dew Point Humidity Pressure Visibility Wind Dir Wind Speed Gust Speed Precip Events Conditions
12:15 AM 62.6 °F 42.8 °F 48% 29.73 in 10.0 mi West 12.7 mph - N/A   Clear
12:35 AM 62.6 °F 41.0 °F 45% 29.72 in 10.0 mi West 10.4 mph - N/A   Scattered Clouds
12:55 AM 60.8 °F 41.0 °F 48% 29.73 in 10.0 mi West 11.5 mph - N/A   Scattered Clouds
1:15 AM 60.8 °F 41.0 °F 48% 29.73 in 10.0 mi West 10.4 mph - N/A   Clear
1:35 AM 60.8 °F 41.0 °F 48% 29.73 in 10.0 mi West 10.4 mph - N/A   Clear
1:55 AM 60.8 °F 42.8 °F 52% 29.73 in 10.0 mi West 10.4 mph - N/A   Clear
2:35 AM 57.2 °F 42.8 °F 59% 29.73 in 10.0 mi West 9.2 mph - N/A   Clear
2:55 AM 55.4 °F 42.8 °F 63% 29.74 in 10.0 mi WNW 8.1 mph - N/A   Clear
3:15 AM 53.6 °F 42.8 °F 67% 29.74 in 10.0 mi WNW 11.5 mph - N/A   Clear
3:35 AM 53.6 °F 42.8 °F 67% 29.74 in 10.0 mi WNW 11.5 mph - N/A   Clear
3:55 AM 53.6 °F 41.0 °F 62% 29.75 in 10.0 mi West 9.2 mph - N/A   Clear
4:15 AM 50.0 °F 41.0 °F 71% 29.76 in 10.0 mi West 10.4 mph - N/A   Clear
4:35 AM 51.8 °F 41.0 °F 67% 29.76 in 10.0 mi West 8.1 mph - N/A   Clear
4:55 AM 51.8 °F 42.8 °F 71% 29.76 in 10.0 mi West 15.0 mph - N/A   Clear
5:15 AM 53.6 °F 42.8 °F 67% 29.77 in 10.0 mi West 15.0 mph - N/A   Clear
5:35 AM 53.6 °F 42.8 °F 67% 29.78 in 10.0 mi West 13.8 mph 20.7 mph N/A   Partly Cloudy
5:55 AM 55.4 °F 42.8 °F 63% 29.77 in 10.0 mi West 17.3 mph 20.7 mph N/A   Scattered Clouds
6:15 AM 55.4 °F 44.6 °F 67% 29.78 in 10.0 mi West 17.3 mph 20.7 mph N/A   Clear
6:35 AM 55.4 °F 44.6 °F 67% 29.78 in 10.0 mi West 18.4 mph 24.2 mph N/A   Clear
6:55 AM 57.2 °F 44.6 °F 63% 29.78 in 10.0 mi WSW 20.7 mph 25.3 mph N/A   Clear
7:15 AM 57.2 °F 44.6 °F 63% 29.79 in 10.0 mi West 21.9 mph 27.6 mph N/A   Clear
7:35 AM 60.8 °F 44.6 °F 55% 29.79 in 10.0 mi West 20.7 mph 29.9 mph N/A   Clear
7:55 AM 60.8 °F 44.6 °F 55% 29.79 in 10.0 mi West 27.6 mph 34.5 mph N/A   Clear
8:15 AM 62.6 °F 46.4 °F 55% 29.79 in 10.0 mi West 25.3 mph 33.4 mph N/A   Partly Cloudy
8:35 AM 62.6 °F 44.6 °F 52% 29.80 in 10.0 mi West 26.5 mph 34.5 mph N/A   Partly Cloudy
8:55 AM 62.6 °F 46.4 °F 55% 29.81 in 10.0 mi West 21.9 mph 36.8 mph N/A   Partly Cloudy
9:15 AM 62.6 °F 46.4 °F 55% 29.81 in 10.0 mi West 25.3 mph 32.2 mph N/A   Mostly Cloudy
9:35 AM 64.4 °F 46.4 °F 52% 29.82 in 10.0 mi West 27.6 mph 33.4 mph N/A   Mostly Cloudy
9:55 AM 62.6 °F 46.4 °F 55% 29.83 in 10.0 mi West 27.6 mph 35.7 mph N/A   Overcast
10:15 AM 64.4 °F 46.4 °F 52% 29.83 in 10.0 mi West 26.5 mph 32.2 mph N/A   Mostly Cloudy
10:35 AM 66.2 °F 46.4 °F 49% 29.84 in 10.0 mi West 21.9 mph 31.1 mph N/A   Mostly Cloudy
10:55 AM 66.2 °F 46.4 °F 49% 29.84 in 10.0 mi WNW 24.2 mph 33.4 mph N/A   Mostly Cloudy
11:15 AM 66.2 °F 46.4 °F 49% 29.84 in 10.0 mi West 20.7 mph 28.8 mph N/A   Overcast
11:35 AM 66.2 °F 46.4 °F 49% 29.84 in 10.0 mi West 20.7 mph 29.9 mph N/A   Overcast
11:55 AM 66.2 °F 46.4 °F 49% 29.85 in 10.0 mi West 24.2 mph 29.9 mph N/A   Overcast
12:15 PM 68.0 °F 46.4 °F 46% 29.85 in 10.0 mi WNW 21.9 mph 31.1 mph N/A   Mostly Cloudy
12:35 PM 69.8 °F 46.4 °F 43% 29.86 in 10.0 mi WNW 19.6 mph 26.5 mph N/A   Overcast
12:55 PM 71.6 °F 48.2 °F 43% 29.86 in 10.0 mi West 27.6 mph 32.2 mph N/A   Mostly Cloudy
1:15 PM 71.6 °F 46.4 °F 41% 29.87 in 10.0 mi West 21.9 mph 31.1 mph N/A   Mostly Cloudy
1:35 PM 71.6 °F 48.2 °F 43% 29.87 in 10.0 mi West 24.2 mph 31.1 mph N/A   Mostly Cloudy
1:55 PM 69.8 °F 46.4 °F 43% 29.88 in 10.0 mi West 23.0 mph 32.2 mph N/A   Overcast
2:15 PM 71.6 °F 48.2 °F 43% 29.87 in 10.0 mi West 24.2 mph 31.1 mph N/A   Mostly Cloudy
2:35 PM 71.6 °F 46.4 °F 41% 29.87 in 10.0 mi WNW 23.0 mph 28.8 mph N/A   Mostly Cloudy
2:55 PM 71.6 °F 46.4 °F 41% 29.87 in 10.0 mi WNW 26.5 mph 31.1 mph N/A   Mostly Cloudy
3:15 PM 73.4 °F 46.4 °F 38% 29.88 in 10.0 mi WNW 23.0 mph 31.1 mph N/A   Scattered Clouds
3:35 PM 73.4 °F 46.4 °F 38% 29.87 in 10.0 mi WNW 20.7 mph 26.5 mph N/A   Mostly Cloudy
3:55 PM 73.4 °F 48.2 °F 41% 29.88 in 10.0 mi WNW 18.4 mph 23.0 mph N/A   Scattered Clouds
4:15 PM 71.6 °F 46.4 °F 41% 29.88 in 10.0 mi WNW 20.7 mph 26.5 mph N/A   Partly Cloudy
4:35 PM 73.4 °F 46.4 °F 38% 29.88 in 10.0 mi WNW 18.4 mph 24.2 mph N/A   Scattered Clouds
4:55 PM 75.2 °F 44.6 °F 34% 29.88 in 10.0 mi West 16.1 mph 26.5 mph N/A   Scattered Clouds
5:15 PM 75.2 °F 46.4 °F 36% 29.88 in 10.0 mi WNW 17.3 mph 20.7 mph N/A   Scattered Clouds
5:35 PM 73.4 °F 44.6 °F 36% 29.89 in 10.0 mi WNW 13.8 mph 24.2 mph N/A   Partly Cloudy
5:55 PM 71.6 °F 44.6 °F 38% 29.89 in 10.0 mi West 15.0 mph 24.2 mph N/A   Partly Cloudy
6:15 PM 73.4 °F 46.4 °F 38% 29.89 in 10.0 mi West 12.7 mph 18.4 mph N/A   Mostly Cloudy
6:35 PM 73.4 °F 44.6 °F 36% 29.89 in 10.0 mi WNW 18.4 mph 24.2 mph N/A   Scattered Clouds
6:55 PM 71.6 °F 44.6 °F 38% 29.90 in 10.0 mi WNW 12.7 mph 18.4 mph N/A   Partly Cloudy
7:15 PM 71.6 °F 44.6 °F 38% 29.90 in 10.0 mi NW 11.5 mph - N/A   Partly Cloudy
7:35 PM 71.6 °F 44.6 °F 38% 29.90 in 10.0 mi WNW 13.8 mph - N/A   Clear
7:55 PM 69.8 °F 46.4 °F 43% 29.91 in 10.0 mi NW 11.5 mph - N/A   Clear
8:15 PM 68.0 °F 46.4 °F 46% 29.91 in 10.0 mi NW 8.1 mph - N/A   Clear
8:35 PM 66.2 °F 46.4 °F 49% 29.92 in 10.0 mi NW 6.9 mph - N/A   Clear
9:15 PM 60.8 °F 44.6 °F 55% 29.92 in 10.0 mi NNW 8.1 mph - N/A   Clear
9:35 PM 62.6 °F 44.6 °F 52% 29.93 in 10.0 mi NNW 6.9 mph - N/A   Clear
9:55 PM 62.6 °F 44.6 °F 52% 29.93 in 10.0 mi NNW 5.8 mph - N/A   Clear
10:15 PM 57.2 °F 44.6 °F 63% 29.93 in 10.0 mi NW 4.6 mph - N/A   Clear
10:35 PM 53.6 °F 44.6 °F 72% 29.93 in 10.0 mi NW 3.5 mph - N/A   Clear
10:55 PM 55.4 °F 44.6 °F 67% 29.93 in 10.0 mi NNW 3.5 mph - N/A   Clear
11:15 PM 55.4 °F 44.6 °F 67% 29.93 in 10.0 mi NW 5.8 mph - N/A   Clear
11:35 PM 53.6 °F 42.8 °F 67% 29.93 in 10.0 mi Calm Calm - N/A   Clear
11:55 PM 53.6 °F 44.6 °F 72% 29.93 in 10.0 mi NNW 6.9 mph - N/A   Clear